When you browse on this site, cookies collect data to enhance your experience and personalize the content and advertising you see.
Visit our Privacy Policy to learn more. By continuing to use the site, you agree to this use of cookies and data.
  • In United Kingdom
  • List of Countries
  • For 7 days
  • Water Temperature
  • Weather Map
  • Weather Widgets
  • user-avatar
    Login

    Hourly Weather Sofia

    Today, 19 October, Saturday

    Time Temperature Precipitation Wind Pressure Humidity
    00:00 +15°C° 0 mm 1 mps 712 mmHg 60%
    01:00 +14°C° 0 mm 0 mps 712 mmHg 61%
    02:00 +14°C° 0 mm 0 mps 712 mmHg 63%
    03:00 +13°C° 0 mm 0 mps 712 mmHg 65%
    04:00 +13°C° 0 mm 0 mps 712 mmHg 66%
    05:00 +13°C° 0 mm 0 mps 712 mmHg 68%
    06:00 +14°C° 0 mm 0 mps 712 mmHg 66%
    07:00 +14°C° 0 mm 0 mps 712 mmHg 64%
    08:00 +15°C° 0 mm 0 mps 712 mmHg 62%
    09:00 +17°C° 0 mm 0 mps 713 mmHg 55%
    10:00 +20°C° 0 mm 0 mps 713 mmHg 49%
    11:00 +22°C° 0 mm 0 mps 713 mmHg 42%
    12:00 +25°C° 0 mm 1 mps 713 mmHg 39%
    13:00 +25°C° 0 mm 1 mps 713 mmHg 37%
    14:00 +26°C° 0 mm 1 mps 713 mmHg 34%
    15:00 +25°C° 0 mm 1 mps 712 mmHg 38%
    16:00 +24°C° 0 mm 1 mps 712 mmHg 41%
    17:00 +23°C° 0 mm 1 mps 712 mmHg 45%
    18:00 +22°C° 0 mm 1 mps 712 mmHg 49%
    19:00 +20°C° 0 mm 1 mps 712 mmHg 54%
    20:00 +18°C° 0 mm 1 mps 712 mmHg 59%
    21:00 +18°C° 0 mm 1 mps 712 mmHg 61%
    22:00 +16°C° 0 mm 1 mps 713 mmHg 63%
    23:00 +16°C° 0 mm 1 mps 713 mmHg 65%

    Tomorrow, 20 October, Sunday

    Time Temperature Precipitation Wind Pressure Humidity
    00:00 +16°C° 0 mm 1 mps 713 mmHg 67%
    01:00 +15°C° 0 mm 1 mps 713 mmHg 69%
    02:00 +15°C° 0 mm 1 mps 713 mmHg 70%
    03:00 +14°C° 0 mm 0 mps 713 mmHg 71%
    04:00 +13°C° 0 mm 0 mps 713 mmHg 73%
    05:00 +13°C° 0 mm 0 mps 713 mmHg 74%
    06:00 +14°C° 0 mm 0 mps 713 mmHg 72%
    07:00 +14°C° 0 mm 0 mps 713 mmHg 69%
    08:00 +15°C° 0 mm 0 mps 714 mmHg 67%
    09:00 +17°C° 0 mm 0 mps 714 mmHg 59%
    10:00 +20°C° 0 mm 0 mps 714 mmHg 52%
    11:00 +24°C° 0 mm 1 mps 715 mmHg 44%
    12:00 +25°C° 0 mm 1 mps 715 mmHg 41%
    13:00 +26°C° 0 mm 1 mps 714 mmHg 38%
    14:00 +27°C° 0 mm 1 mps 714 mmHg 35%
    15:00 +26°C° 0 mm 1 mps 714 mmHg 38%
    16:00 +24°C° 0 mm 1 mps 714 mmHg 42%
    17:00 +23°C° 0 mm 1 mps 713 mmHg 45%
    18:00 +22°C° 0 mm 1 mps 714 mmHg 50%
    19:00 +20°C° 0 mm 1 mps 714 mmHg 55%
    20:00 +19°C° 0 mm 1 mps 714 mmHg 59%
    21:00 +18°C° 0 mm 1 mps 714 mmHg 61%
    22:00 +18°C° 0 mm 1 mps 714 mmHg 64%
    23:00 +16°C° 0 mm 1 mps 714 mmHg 66%

    Day after tomorrow, 21 October, Monday

    Time Temperature Precipitation Wind Pressure Humidity
    00:00 +16°C° 0 mm 1 mps 714 mmHg 68%
    01:00 +14°C° 0 mm 0 mps 714 mmHg 69%
    02:00 +14°C° 0 mm 0 mps 714 mmHg 71%
    03:00 +14°C° 0 mm 0 mps 714 mmHg 73%
    04:00 +13°C° 0 mm 0 mps 714 mmHg 74%
    05:00 +13°C° 0 mm 0 mps 714 mmHg 75%
    06:00 +14°C° 0 mm 0 mps 714 mmHg 73%
    07:00 +14°C° 0 mm 0 mps 714 mmHg 70%
    08:00 +15°C° 0 mm 0 mps 715 mmHg 67%
    09:00 +18°C° 0 mm 0 mps 715 mmHg 59%
    10:00 +20°C° 0 mm 0 mps 715 mmHg 51%
    11:00 +22°C° 0 mm 0 mps 716 mmHg 42%
    12:00 +25°C° 0 mm 1 mps 715 mmHg 39%
    13:00 +26°C° 0 mm 1 mps 715 mmHg 36%
    14:00 +27°C° 0 mm 1 mps 715 mmHg 33%
    15:00 +25°C° 0 mm 1 mps 715 mmHg 36%
    16:00 +24°C° 0 mm 1 mps 714 mmHg 40%
    17:00 +23°C° 0 mm 1 mps 714 mmHg 43%
    18:00 +22°C° 0 mm 1 mps 714 mmHg 49%
    19:00 +20°C° 0 mm 1 mps 714 mmHg 54%
    20:00 +18°C° 0 mm 1 mps 714 mmHg 59%
    21:00 +18°C° 0 mm 1 mps 714 mmHg 61%
    22:00 +16°C° 0 mm 1 mps 714 mmHg 62%
    23:00 +16°C° 0 mm 1 mps 714 mmHg 64%

    22 October, Tuesday

    Time Temperature Precipitation Wind Pressure Humidity
    00:00 +15°C° 0 mm 1 mps 714 mmHg 66%
    01:00 +14°C° 0 mm 0 mps 714 mmHg 68%
    02:00 +13°C° 0 mm 0 mps 714 mmHg 70%
    03:00 +13°C° 0 mm 0 mps 714 mmHg 71%
    04:00 +13°C° 0 mm 0 mps 714 mmHg 72%
    05:00 +12°C° 0 mm 0 mps 714 mmHg 73%
    06:00 +13°C° 0 mm 0 mps 715 mmHg 71%
    07:00 +14°C° 0 mm 0 mps 715 mmHg 68%
    08:00 +15°C° 0 mm 0 mps 715 mmHg 66%
    09:00 +19°C° 0 mm 1 mps 715 mmHg 58%
    10:00 +21°C° 0 mm 1 mps 716 mmHg 50%
    11:00 +23°C° 0 mm 1 mps 716 mmHg 42%
    12:00 +24°C° 0 mm 1 mps 716 mmHg 38%
    13:00 +25°C° 0 mm 2 mps 715 mmHg 34%
    14:00 +26°C° 0 mm 2 mps 715 mmHg 30%
    15:00 +24°C° 0 mm 2 mps 715 mmHg 34%
    16:00 +23°C° 0 mm 2 mps 715 mmHg 38%
    17:00 +21°C° 0 mm 2 mps 714 mmHg 41%
    18:00 +19°C° 0 mm 2 mps 714 mmHg 46%
    19:00 +19°C° 0 mm 1 mps 714 mmHg 51%
    20:00 +16°C° 0 mm 1 mps 714 mmHg 56%
    21:00 +16°C° 0 mm 1 mps 715 mmHg 57%
    22:00 +15°C° 0 mm 1 mps 715 mmHg 58%
    23:00 +14°C° 0 mm 0 mps 715 mmHg 59%

    23 October, Wednesday

    Time Temperature Precipitation Wind Pressure Humidity
    00:00 +13°C° 0 mm 0 mps 715 mmHg 60%
    01:00 +13°C° 0 mm 0 mps 714 mmHg 60%
    02:00 +13°C° 0 mm 0 mps 714 mmHg 61%
    03:00 +12°C° 0 mm 0 mps 714 mmHg 62%
    04:00 +12°C° 0 mm 0 mps 714 mmHg 63%
    05:00 +12°C° 0 mm 0 mps 714 mmHg 64%
    06:00 +12°C° 0 mm 0 mps 714 mmHg 62%
    07:00 +13°C° 0 mm 0 mps 715 mmHg 60%
    08:00 +14°C° 0 mm 0 mps 715 mmHg 58%
    09:00 +18°C° 0 mm 1 mps 715 mmHg 51%
    10:00 +20°C° 0 mm 1 mps 715 mmHg 44%
    11:00 +23°C° 0 mm 1 mps 715 mmHg 36%
    12:00 +24°C° 0 mm 2 mps 715 mmHg 33%
    13:00 +24°C° 0 mm 2 mps 715 mmHg 30%
    14:00 +25°C° 0 mm 2 mps 715 mmHg 26%
    15:00 +24°C° 0 mm 2 mps 714 mmHg 30%
    16:00 +23°C° 0 mm 2 mps 714 mmHg 33%
    17:00 +20°C° 0 mm 2 mps 714 mmHg 36%
    18:00 +18°C° 0 mm 2 mps 714 mmHg 38%
    19:00 +18°C° 0 mm 1 mps 714 mmHg 40%
    20:00 +15°C° 0 mm 1 mps 714 mmHg 42%
    21:00 +15°C° 0 mm 1 mps 714 mmHg 42%
    22:00 +14°C° 0 mm 1 mps 714 mmHg 42%
    23:00 +14°C° 0 mm 1 mps 714 mmHg 42%

    24 October, Thursday

    Time Temperature Precipitation Wind Pressure Humidity
    00:00 +13°C° 0 mm 1 mps 714 mmHg 43%
    01:00 +13°C° 0 mm 1 mps 714 mmHg 44%
    02:00 +11°C° 0 mm 0 mps 714 mmHg 44%
    03:00 +11°C° 0 mm 0 mps 714 mmHg 45%
    04:00 +11°C° 0 mm 0 mps 713 mmHg 46%
    05:00 +10°C° 0 mm 0 mps 713 mmHg 47%
    06:00 +11°C° 0 mm 0 mps 713 mmHg 46%
    07:00 +11°C° 0 mm 0 mps 713 mmHg 45%
    08:00 +12°C° 0 mm 0 mps 714 mmHg 44%
    09:00 +15°C° 0 mm 0 mps 714 mmHg 38%
    10:00 +19°C° 0 mm 1 mps 714 mmHg 31%
    11:00 +22°C° 0 mm 1 mps 714 mmHg 24%
    12:00 +23°C° 0 mm 1 mps 714 mmHg 22%
    13:00 +24°C° 0 mm 1 mps 714 mmHg 19%
    14:00 +25°C° 0 mm 2 mps 714 mmHg 17%
    15:00 +24°C° 0 mm 1 mps 713 mmHg 20%
    16:00 +22°C° 0 mm 1 mps 713 mmHg 23%
    17:00 +20°C° 0 mm 1 mps 712 mmHg 27%
    18:00 +19°C° 0 mm 1 mps 712 mmHg 29%
    19:00 +16°C° 0 mm 1 mps 712 mmHg 31%
    20:00 +14°C° 0 mm 1 mps 712 mmHg 33%
    21:00 +14°C° 0 mm 1 mps 712 mmHg 34%
    22:00 +13°C° 0 mm 1 mps 713 mmHg 35%
    23:00 +13°C° 0 mm 1 mps 713 mmHg 36%
    Show more